LiveATC.Net - Listen to live air traffic control over the Internet!


ICAO: KLVK  IATA: LVK   Airport: Livermore Municipal Airport
City: Livermore   State/Province: California
Country: United States   Continent: North America
KLVK METAR Weather: KLVK 061553Z 00000KT 10SM CLR 16/11 A3005 RMK AO2 SLP173 T01610111
KLVK ADS-B Flight Tracking (ADSBExchange)
KLVK Flight Activity (FlightAware)
KLVK Airport Info   (iFlightPlanner)
KLVK VFR Sectional Chart   (iFlightPlanner) 
KLVK IFR Low Altitude Chart   (iFlightPlanner) 
KLVK IFR High Altitude Chart   (iFlightPlanner) 

KLVK Ground/Tower
Feed Status: UP   Listeners: 1
Listen in your browser - HTML5 player (in browser, HTML5)
Click here to listen with your own player (launches your MP3 player)
Archive Access: KLVK Ground/Tower
FacilityFrequency
Livermore Ground121.600
Livermore Tower (Primary/North)/CTAF118.100
Livermore Tower (Secondary/South)128.200

NOTICE

Unauthorized use prohibited. See LiveATC.net Terms of Service


Airport/ARTCC Code
Frequency Search
(e.g., 124.400, 128.75)
Site-wide search
 


Browse Feeds
Top 50 Feeds
HF Oceanic Feeds
Coverage Map
Bad Weather Areas

LiveATC FAQ
Offer LiveATC feed
Contact LiveATC.net
Press Inquiries

LiveATC on iPhone
LiveATC on Android

LiveATC Mobile
(Mobile browser)

ATC Audio Archives
Interesting Recordings

LiveATC Forums


Home Page
About LiveATC.net


Terms of Use
Privacy Policy

AIRMETs/SIGMETs

FAA Airport Status
NAS Status
Arrival Demand


Server Software By:
Icecast.org
Liquidsoap